Wind_Speed
34 34 34 33 33 33 32 33 33 33 34 35 34 33 33 33 32 32 31 30 30 29 28 27 27 27 28 28 29 30 30 30 31 31 31 31 30 30 30 30 31 31 31
35 35 35 35 34 34 33 33 34 34 34 35 35 34 34 33 33 33 32 32 31 30 29 29 29 29 30 30 31 31 31 31 32 31 31 32 32 32 32 32 32 32 32
35 35 35 35 35 35 34 34 34 35 35 35 35 35 35 34 34 34 33 33 33 33 31 31 32 32 33 32 32 32 32 33 33 33 33 32 32 32 33 33 33 33 34
34 34 34 35 35 36 36 36 36 36 37 37 37 37 36 36 36 35 35 35 35 34 34 34 33 33 33 34 34 34 34 34 35 35 35 35 35 35 35 35 35 35 35
36 35 35 35 36 36 37 37 37 37 37 37 37 37 37 37 36 36 36 36 36 36 36 36 36 36 35 36 36 37 37 36 36 36 36 37 37 36 36 36 36 36 36
36 37 37 37 37 37 37 37 37 37 38 38 38 38 38 38 38 38 37 37 37 38 38 37 37 38 39 39 38 39 39 39 38 38 38 38 38 37 37 37 37 36 36
36 36 36 37 37 37 37 37 37 37 37 38 38 39 39 40 39 39 39 39 39 39 39 39 39 40 40 40 40 40 39 39 39 38 38 38 38 38 38 38 38 37 37
37 37 37 37 37 37 37 37 37 37 38 38 39 39 39 40 39 40 40 41 40 40 39 39 39 39 39 40 39 40 39 39 40 40 40 40 39 39 39 39 39 38 37
37 37 37 37 36 36 36 37 38 39 39 39 39 39 39 39 39 40 40 41 40 40 39 39 40 40 39 39 40 41 40 40 40 40 40 40 40 40 39 40 39 38 37
39 39 38 38 37 37 37 37 38 38 38 38 38 38 38 39 39 39 39 40 40 40 40 40 40 41 41 41 41 41 40 40 41 41 41 41 41 41 41 40 39 38 37
38 38 39 39 38 38 38 38 38 38 38 38 38 37 37 38 39 40 39 39 40 40 41 41 41 41 42 42 41 41 41 42 42 42 41 41 41 41 41 40 40 39 39
36 37 38 38 38 38 38 39 39 39 39 39 38 38 37 37 38 39 39 39 40 40 42 42 42 42 42 42 41 41 42 42 42 42 42 41 41 41 41 40 40 40 40
35 36 36 37 38 38 38 38 39 39 39 39 39 39 39 38 38 38 38 39 39 40 41 41 42 42 42 41 41 41 41 41 41 41 41 41 41 41 41 41 40 40 41
33 34 35 36 37 38 38 38 39 39 39 40 40 40 40 39 39 39 39 39 40 40 40 40 41 41 41 42 41 40 40 40 41 41 41 40 40 40 40 39 39 40 40
34 34 35 35 36 37 38 39 39 39 39 40 40 39 39 40 40 40 40 40 40 40 40 40 40 40 41 41 40 40 41 41 41 41 41 40 41 41 40 39 39 40 40
35 35 36 36 36 36 37 38 39 39 39 39 40 40 40 40 40 41 42 42 41 41 40 39 40 40 40 40 40 40 40 40 40 41 41 41 41 40 40 40 40 40 40
36 37 37 37 37 37 37 38 39 40 40 40 41 41 41 42 42 42 42 42 42 41 40 39 40 40 40 40 39 40 40 40 40 40 40 40 40 40 40 40 39 40 41
38 38 38 38 38 38 38 38 39 39 40 40 41 41 42 43 43 43 43 43 43 42 41 40 39 39 39 39 39 39 39 40 40 39 40 40 40 40 40 40 40 40 41
39 39 38 38 37 37 37 37 38 38 38 39 40 41 41 42 42 43 43 43 43 42 42 41 40 40 40 39 39 39 39 39 39 39 39 40 40 40 40 40 40 41 42
38 37 37 36 36 36 37 37 37 37 37 37 38 39 39 40 40 41 42 42 42 42 41 41 41 41 41 41 40 40 39 40 40 39 40 40 40 39 39 40 41 41 42
37 36 36 36 36 36 36 36 36 37 37 37 37 38 38 39 39 39 40 40 41 41 42 42 42 41 41 41 40 40 40 40 40 40 39 40 40 40 40 40 41 41 42
37 36 36 36 36 36 36 36 37 37 37 37 37 37 37 38 38 38 38 39 39 40 40 41 41 41 41 41 40 40 40 40 40 40 40 40 41 41 41 41 41 42 43
38 38 37 37 37 37 37 37 37 37 37 37 37 37 37 37 37 37 37 38 38 38 39 40 40 40 41 41 41 40 41 40 39 40 40 40 41 41 41 42 42 43 43
38 38 38 38 38 38 38 38 38 38 37 37 37 37 37 37 37 38 38 38 38 39 39 40 39 39 39 40 40 40 40 39 40 40 40 40 40 40 41 41 42 43 44
40 39 39 39 39 39 39 39 39 38 38 38 38 38 38 37 38 38 38 38 39 40 40 40 39 40 40 40 39 39 39 39 40 40 39 39 40 41 41 41 42 43 43
40 40 40 40 41 40 41 41 40 39 39 39 38 38 38 38 39 39 40 40 40 40 41 41 41 42 41 41 41 40 40 40 40 39 39 40 40 41 40 40 41 42 42
Wind_Direction
256 257 259 260 261 262 263 262 262 262 261 261 262 263 265 266 266 266 268 270 271 273 274 276 278 281 282 284 285 287 287 288 288 289 289 289 290 291 291 292 293 293 293
258 258 259 260 261 262 263 264 263 263 262 262 262 263 264 266 267 266 267 268 270 272 272 274 277 280 282 284 285 286 287 288 289 289 289 289 289 290 291 291 291 291 292
258 259 259 260 261 262 262 263 264 263 262 262 262 263 263 264 265 266 266 267 268 271 273 274 278 280 282 283 284 286 287 287 288 288 288 288 288 290 292 292 290 290 290
258 259 260 260 260 262 262 263 263 263 262 262 263 263 263 264 265 265 265 266 268 270 272 274 278 280 282 283 284 285 285 286 286 287 287 287 288 289 290 291 291 291 289
256 259 260 260 261 262 263 264 263 263 263 263 263 263 263 263 264 264 265 266 267 268 271 273 276 278 280 282 284 284 284 285 285 286 286 286 287 288 289 291 291 291 290
257 257 258 260 261 262 263 264 263 262 263 263 263 263 263 263 264 265 266 267 268 270 271 273 276 278 280 282 283 284 284 283 284 285 286 286 286 287 288 288 289 288 288
259 259 260 261 261 262 264 263 263 263 263 263 264 265 264 264 264 265 265 266 268 270 271 273 276 278 279 280 281 281 282 282 282 284 285 285 286 286 287 288 288 287 287
261 261 261 262 261 263 265 265 264 264 266 265 264 265 266 265 264 265 266 267 268 270 271 274 277 278 279 280 280 281 281 281 281 282 283 284 285 286 286 287 287 287 287
263 262 262 262 263 264 265 265 265 266 267 266 265 266 267 265 264 264 265 266 267 269 271 274 277 278 278 280 281 281 280 280 281 281 282 283 283 284 285 286 286 286 286
264 263 263 264 265 266 266 266 265 265 265 265 265 265 267 266 264 264 265 265 266 268 271 274 275 276 278 280 281 280 279 279 279 280 280 281 282 283 283 284 284 284 285
264 265 265 264 265 266 266 267 266 264 265 264 263 264 267 267 266 266 264 265 267 269 271 273 275 277 278 279 280 278 278 278 277 278 280 280 281 282 283 283 283 283 283
265 265 266 266 266 267 267 268 267 265 264 264 262 263 266 266 265 266 265 266 269 271 272 273 275 276 278 278 278 278 277 277 277 278 279 280 281 282 283 284 282 282 282
267 267 267 267 267 267 267 268 267 266 265 265 264 263 264 265 265 265 267 268 270 272 273 273 274 276 277 278 277 278 278 277 277 278 278 279 281 283 284 283 282 282 283
268 268 268 268 268 268 268 268 267 266 266 265 264 263 263 264 264 265 267 269 270 271 272 274 275 275 276 276 277 277 277 276 276 278 279 280 281 283 283 283 281 283 284
268 269 269 269 269 269 269 268 267 266 265 265 264 262 263 264 264 265 267 269 271 272 273 274 276 277 277 276 278 278 277 276 276 278 278 278 281 282 282 282 282 282 283
269 269 270 270 269 269 268 267 267 266 265 264 263 262 263 264 264 266 268 270 272 274 275 275 276 277 277 277 278 278 278 277 277 278 278 279 280 281 281 282 281 282 283
269 270 270 270 270 269 268 267 267 266 265 264 263 264 264 264 266 267 268 269 271 273 275 275 276 277 277 277 278 279 278 277 277 277 277 278 280 280 281 282 282 282 282
270 270 270 270 269 268 267 267 266 266 265 265 264 265 265 264 265 266 267 269 271 272 274 275 275 276 276 277 279 279 279 279 279 279 278 279 280 279 280 281 282 283 284
270 270 270 270 270 269 268 267 266 266 266 266 266 265 265 266 266 266 268 270 271 272 273 273 275 275 276 277 278 278 279 280 280 279 279 281 280 279 280 281 282 284 285
270 270 269 269 269 269 269 267 267 266 266 266 267 266 266 266 267 268 268 269 270 271 272 273 274 274 275 276 277 278 278 279 280 280 280 280 280 279 281 282 283 284 286
268 268 268 268 268 269 269 268 267 267 267 267 267 266 266 266 268 268 269 269 269 270 271 272 273 274 274 275 276 277 277 278 280 281 281 280 279 280 280 282 284 285 286
268 268 268 267 268 268 268 268 268 268 267 267 267 266 267 268 268 268 268 269 270 270 270 272 273 274 274 275 275 275 276 277 278 279 280 280 280 280 281 283 284 286 288
267 267 267 267 268 268 268 268 267 267 268 267 267 267 268 268 267 268 268 269 269 270 271 271 273 274 274 275 275 275 276 277 277 278 279 280 281 282 283 284 286 288 289
267 267 267 268 268 268 269 269 268 268 267 267 268 268 268 268 268 269 269 268 269 270 271 271 273 274 274 275 274 275 276 276 277 277 278 280 282 283 285 286 288 289 290
265 266 267 267 268 268 268 268 268 267 267 267 268 268 268 268 269 269 270 270 270 271 271 272 272 273 274 274 275 276 276 277 277 278 279 280 281 283 285 286 288 289 289
266 266 267 267 267 267 268 268 267 267 267 267 268 268 268 268 269 270 271 271 271 271 272 272 272 273 274 275 275 276 276 277 278 278 280 281 282 284 285 287 288 289 290
Height
5817 5818 5819 5820 5820 5820 5821 5821 5822 5822 5823 5824 5825 5826 5826 5827 5827 5827 5827 5827 5827 5826 5826 5825 5824 5823 5823 5822 5821 5819 5818 5817 5815 5814 5812 5811 5809 5808 5806 5804 5802 5800 5798
5810 5811 5811 5812 5813 5813 5813 5814 5814 5815 5815 5816 5817 5818 5819 5820 5820 5820 5820 5820 5820 5820 5819 5819 5818 5817 5816 5815 5814 5813 5812 5810 5809 5807 5806 5804 5803 5801 5800 5798 5796 5794 5791
5802 5803 5803 5804 5805 5805 5806 5806 5807 5807 5808 5809 5810 5811 5811 5812 5812 5813 5813 5813 5813 5813 5812 5812 5811 5811 5810 5809 5807 5806 5805 5803 5802 5800 5799 5798 5796 5794 5793 5791 5789 5786 5784
5793 5794 5795 5796 5797 5797 5798 5798 5799 5799 5800 5801 5802 5803 5803 5804 5804 5805 5805 5805 5805 5805 5805 5805 5804 5803 5802 5801 5800 5799 5798 5796 5795 5793 5792 5790 5789 5787 5785 5783 5781 5779 5777
5785 5786 5787 5788 5788 5789 5790 5790 5791 5791 5792 5792 5793 5794 5795 5796 5796 5797 5797 5797 5798 5797 5797 5797 5796 5796 5795 5794 5792 5791 5790 5788 5787 5786 5784 5782 5781 5779 5777 5775 5773 5771 5769
5777 5778 5779 5779 5780 5781 5781 5781 5782 5782 5783 5784 5785 5785 5786 5787 5788 5788 5789 5789 5789 5789 5789 5789 5788 5787 5786 5785 5784 5783 5781 5780 5779 5777 5776 5774 5772 5771 5769 5767 5765 5763 5761
5768 5769 5770 5771 5771 5772 5772 5772 5773 5774 5774 5775 5776 5776 5777 5778 5779 5779 5780 5780 5781 5781 5780 5780 5779 5778 5777 5776 5775 5774 5772 5771 5770 5769 5767 5766 5764 5762 5760 5758 5756 5754 5752
5760 5760 5761 5762 5762 5763 5764 5764 5765 5765 5766 5766 5767 5767 5768 5769 5769 5770 5770 5771 5771 5771 5771 5771 5770 5769 5768 5767 5766 5764 5763 5762 5761 5760 5758 5757 5755 5753 5751 5749 5747 5745 5743
5751 5751 5752 5753 5754 5754 5755 5755 5756 5756 5757 5757 5758 5758 5759 5760 5760 5761 5761 5761 5762 5762 5762 5761 5761 5760 5759 5758 5756 5755 5754 5753 5752 5751 5749 5747 5746 5744 5742 5740 5738 5736 5734
5742 5743 5743 5744 5745 5745 5746 5746 5747 5747 5748 5748 5748 5749 5750 5750 5750 5752 5752 5752 5752 5753 5752 5752 5752 5751 5749 5748 5746 5745 5744 5743 5742 5741 5739 5737 5736 5734 5732 5730 5729 5727 5725
5734 5734 5734 5735 5736 5736 5737 5737 5737 5738 5738 5739 5739 5740 5740 5740 5740 5741 5743 5743 5743 5743 5743 5742 5742 5741 5739 5738 5736 5735 5734 5733 5732 5730 5729 5727 5726 5724 5722 5720 5719 5717 5715
5725 5725 5726 5726 5727 5727 5727 5728 5728 5728 5729 5730 5730 5731 5732 5732 5732 5732 5732 5733 5734 5734 5733 5732 5732 5730 5729 5728 5726 5725 5724 5723 5721 5720 5719 5717 5716 5714 5712 5710 5708 5707 5705
5717 5717 5717 5717 5717 5718 5718 5718 5718 5719 5719 5720 5721 5722 5723 5723 5723 5723 5723 5724 5724 5724 5723 5722 5721 5720 5718 5717 5716 5714 5713 5712 5711 5710 5708 5707 5705 5704 5702 5700 5698 5696 5694
5708 5708 5708 5708 5708 5708 5708 5708 5708 5709 5710 5711 5711 5712 5713 5714 5714 5714 5714 5714 5714 5714 5713 5712 5710 5709 5708 5707 5705 5704 5703 5702 5701 5699 5698 5696 5695 5693 5692 5689 5688 5686 5683
5700 5700 5700 5700 5699 5699 5699 5699 5699 5700 5700 5701 5702 5702 5703 5704 5704 5704 5704 5704 5704 5704 5704 5702 5700 5699 5697 5696 5695 5694 5692 5691 5690 5689 5688 5687 5685 5683 5681 5679 5677 5675 5673
5691 5691 5691 5690 5690 5690 5689 5689 5690 5690 5691 5691 5692 5693 5694 5694 5694 5694 5694 5694 5694 5693 5693 5693 5691 5689 5687 5686 5685 5683 5682 5681 5680 5679 5677 5676 5675 5673 5671 5669 5667 5664 5662
5681 5681 5681 5681 5681 5680 5680 5680 5680 5681 5681 5682 5682 5683 5683 5683 5684 5684 5683 5684 5683 5683 5683 5682 5680 5679 5677 5676 5674 5673 5672 5670 5670 5668 5667 5665 5664 5662 5661 5658 5656 5654 5651
5672 5671 5671 5671 5671 5671 5670 5671 5671 5671 5671 5671 5671 5672 5672 5672 5672 5672 5672 5673 5672 5672 5672 5671 5670 5669 5668 5666 5665 5663 5662 5660 5659 5658 5656 5655 5654 5652 5650 5648 5645 5643 5640
5661 5661 5661 5661 5661 5661 5661 5661 5661 5661 5661 5661 5661 5661 5661 5661 5661 5661 5661 5661 5661 5661 5660 5660 5660 5659 5658 5656 5655 5653 5652 5650 5649 5648 5646 5645 5643 5641 5639 5637 5635 5632 5629
5651 5651 5651 5651 5651 5651 5651 5651 5651 5651 5651 5651 5651 5650 5650 5650 5650 5650 5650 5650 5649 5649 5649 5649 5649 5648 5647 5646 5645 5643 5642 5640 5639 5637 5635 5634 5632 5630 5628 5626 5623 5621 5618
5640 5641 5641 5641 5641 5641 5641 5641 5641 5641 5641 5641 5640 5640 5640 5639 5639 5638 5638 5638 5638 5638 5638 5638 5638 5637 5637 5636 5635 5633 5632 5630 5629 5627 5625 5623 5621 5619 5617 5614 5612 5609 5606
5630 5630 5630 5630 5630 5630 5630 5630 5630 5630 5630 5630 5630 5630 5629 5629 5628 5628 5628 5628 5627 5627 5627 5627 5627 5626 5625 5624 5623 5622 5621 5620 5619 5617 5614 5612 5610 5608 5606 5603 5600 5597 5593
5619 5619 5619 5620 5620 5620 5620 5620 5620 5620 5620 5620 5620 5619 5619 5618 5618 5618 5617 5617 5617 5616 5616 5616 5616 5615 5614 5613 5612 5611 5610 5608 5607 5605 5603 5602 5599 5597 5594 5591 5589 5585 5581
5607 5608 5608 5609 5609 5609 5609 5609 5608 5609 5609 5609 5609 5608 5608 5608 5607 5607 5606 5606 5606 5606 5605 5605 5605 5604 5603 5602 5601 5600 5598 5597 5596 5594 5592 5591 5588 5586 5583 5580 5576 5573 5569
5595 5596 5597 5597 5597 5598 5597 5597 5597 5597 5598 5598 5598 5597 5597 5597 5596 5596 5596 5596 5595 5595 5594 5593 5593 5592 5591 5590 5589 5588 5587 5586 5585 5583 5580 5579 5577 5575 5572 5569 5565 5561 5557
5583 5584 5584 5585 5585 5586 5585 5585 5585 5586 5586 5586 5586 5586 5586 5586 5585 5585 5585 5584 5584 5583 5582 5582 5582 5581 5580 5579 5578 5577 5575 5574 5572 5572 5569 5567 5565 5562 5561 5558 5554 5549 5545